[[{"header":{"parameterUnit":"m.s-1","parameterCategory":1,"la1":30.2991,"la2":30.254,"lo1":-89.0895,"lo2":-89.0444,"dy":0.0017,"dx":0.0017,"nx":28,"ny":28,"refTime":"2024-04-08T09:00:00:Z","depth":0,"parameterNumber":2,"parameterNumberName":"U-component_of_WINDS"},"data":[0,0,0,0,0,0,0,0,0,0,0,0,0,0,0,0,0,0,0,0,0,0,0,0,0,0,0,0,0,0,0,0,0,0,0,0,0,0,0,0,0,0,0,0,0,0,0,0,0,0,0,0,0,0,0,0,0,0,-6.8186,-6.8187,0,-6.8287,-6.8288,-6.8289,-6.8252,-6.825,-6.8248,-6.8245,-6.8345,-6.8349,-6.8354,0,0,0,0,0,0,0,0,0,0,0,0,0,-6.7958,-6.7963,-6.8186,-6.8187,-6.8188,-6.8287,-6.8288,-6.8289,-6.8253,-6.825,-6.8247,-6.8244,-6.8343,-6.8349,-6.8354,0,0,0,0,0,0,0,0,0,0,0,0,0,-6.8058,-6.7964,-6.8186,-6.8182,-6.8183,-6.8286,-6.8288,-6.829,-6.8253,-6.825,-6.8246,-6.8243,-6.8341,-6.8348,-6.8355,-6.8467,0,0,-6.8377,-6.838,0,0,0,0,0,0,0,0,-6.8052,-6.8066,-6.8181,-6.8182,-6.8183,-6.8254,-6.8244,-6.8349,-6.8254,-6.8226,-6.8245,-6.8241,-6.8317,-6.8326,-6.8352,-6.8472,-6.8476,-6.8378,-6.8382,-6.8385,-6.8387,0,0,0,0,0,0,0,-6.8045,-6.8062,-6.8226,-6.8183,-6.8184,-6.8174,-6.8185,-6.8264,-6.8289,-6.8228,-6.8226,-6.8239,-6.8317,-6.8345,-6.8354,-6.8478,-6.8377,-6.8384,-6.8388,-6.8391,-6.8693,-6.8697,0,0,0,0,0,0,-6.8039,-6.8056,-6.8222,-6.8229,-6.8108,-6.8181,-6.8193,-6.8234,-6.8288,-6.8293,-6.8241,-6.8237,-6.8335,-6.8346,-6.8357,-6.849,-6.8385,-6.8392,-6.8396,-6.869,-6.8694,-6.8698,0,0,0,0,0,0,-6.8034,-6.8054,-6.8218,-6.8142,-6.8162,-6.8189,-6.8236,-6.8238,-6.8266,-6.8298,-6.8302,-6.8266,-6.8332,-6.8347,-6.844,-6.8493,-6.8395,-6.8401,-6.8685,-6.8691,-6.8696,-6.8758,0,0,0,0,0,0,-6.8027,-6.8052,-6.8096,-6.8143,-6.8166,-6.83,-6.8239,-6.8243,-6.8279,-6.8274,-6.8322,-6.8327,-6.8331,-6.843,-6.8447,-6.8501,-6.8407,-6.868,-6.8688,-6.8694,-6.8751,-6.8765,-6.8777,0,0,0,0,0,-6.8019,-6.8108,-6.8098,-6.8118,-6.8221,-6.8304,-6.8317,-6.832,-6.8284,-6.8327,-6.8348,-6.8325,-6.8486,-6.844,-6.8459,-6.8516,-6.8677,-6.8686,-6.8694,-6.8745,-6.8762,-6.8776,0,0,0,0,0,0,-6.8065,-6.8114,-6.8103,-6.8211,-6.8254,-6.8297,-6.8351,-6.8338,-6.8391,-6.8384,-6.8385,-6.8397,-6.8492,-6.8514,-6.8462,-6.8627,-6.8576,-6.8588,-6.8608,-6.8624,-6.8637,-6.8628,-6.8413,0,0,0,0,0,-6.8088,-6.8151,-6.8191,-6.8282,-6.8304,-6.8325,-6.8361,-6.836,-6.8404,-6.8421,-6.8448,-6.849,-6.855,-6.8589,-6.8646,-6.8756,-6.8764,-6.8805,-6.8817,-6.8828,-6.8837,-6.8895,-6.8913,-6.8726,-6.8726,-6.8726,0,0,-6.8134,-6.817,-6.8209,-6.8292,-6.8325,-6.8389,-6.834,-6.841,-6.8458,-6.8431,-6.852,-6.8542,-6.8589,-6.8691,-6.8737,-6.8712,-6.8892,-6.8838,-6.8846,-6.885,-6.8906,-6.8923,-6.8939,-6.8732,-6.8731,-6.873,0,0,-6.8252,-6.8287,-6.8365,-6.84,-6.8451,-6.8464,-6.8483,-6.853,-6.8544,-6.8634,-6.8615,-6.8671,-6.8775,-6.8809,-6.8839,-6.8972,-6.8953,-6.8991,-6.9056,-6.9113,-6.9127,-6.914,-6.9185,-6.9201,-6.9002,-6.9002,-6.9002,0,-6.8303,-6.8401,-6.8407,-6.8479,-6.8515,-6.8497,-6.8575,-6.8609,-6.8675,-6.87,-6.8672,-6.8801,-6.8832,-6.894,-6.8973,-6.8999,-6.9019,-6.8983,-6.9125,-6.9138,-6.915,-6.9193,-6.921,-6.9006,-6.9005,-6.9005,-6.9005,0,-6.846,-6.8528,-6.8586,-6.8651,-6.8695,-6.877,-6.8786,-6.8829,-6.8826,-6.8842,-6.8933,-6.897,-6.9033,-6.906,-6.9057,-6.9168,-6.915,-6.9124,-6.9072,-6.9172,-6.9212,-6.9229,-6.9012,-6.901,-6.9009,-6.9008,0,0,-6.8605,-6.8676,-6.8696,-6.8725,-6.8782,-6.8834,-6.8908,-6.8972,-6.9007,-6.9055,-6.9115,-6.9205,-6.9181,-6.9216,-6.9217,-6.9267,-6.9367,-6.9235,-6.9236,-6.9255,-6.9489,-6.9506,-6.9524,-6.9357,-6.936,-6.9363,-6.9484,0,-6.8725,-6.8856,-6.8865,-6.8983,-6.9045,-6.9029,-6.9094,-6.9135,-6.9153,-6.9207,-6.9226,-6.9288,-6.9254,-6.9274,-6.9324,-6.9345,-6.9414,-6.9337,-6.9411,-6.9413,-6.9395,-6.9546,-6.9564,-6.9676,-6.95,-6.9503,-6.9505,0,-6.8881,-6.8935,-6.9059,-6.9107,-6.9133,-6.9191,-6.9249,-6.9303,-6.9349,-6.9358,-6.9398,-6.9393,-6.9468,-6.9417,-6.9519,-6.9466,-6.9498,-6.9513,-6.9517,-6.9521,-6.9462,-6.955,-6.9712,-6.9728,-6.953,-6.9528,-6.9526,0,-6.8971,-6.9075,-6.9162,-6.9188,-6.9246,-6.9287,-6.9313,-6.9356,-6.9393,-6.9445,-6.9469,-6.9529,-6.956,-6.9606,-6.9616,-6.9578,-6.9718,-6.9667,-6.9725,-6.9725,-6.9751,-6.9749,-6.9917,-6.9778,-6.9778,-6.9778,-6.9777,0,-6.9102,-6.9178,-6.9203,-6.9256,-6.9341,-6.935,-6.9433,-6.9456,-6.9495,-6.9552,-6.9543,-6.9596,-6.9608,-6.9664,-6.9673,-6.9755,-6.977,-6.9778,-6.9778,-6.9777,-6.9775,-6.9794,-6.9785,-6.9782,-6.9781,-6.978,-6.978,0,-6.9214,-6.9235,-6.9328,-6.9377,-6.9391,-6.9451,-6.9491,-6.9542,-6.956,-6.9632,-6.9649,-6.9676,-6.9741,-6.9757,-6.9834,-6.984,-6.9936,-6.9931,-6.992,-6.9919,-6.9974,-6.9967,-7.0157,-7.0181,-7.003,-7.0032,-7.0033,0,-6.9294,-6.9352,-6.9407,-6.9445,-6.9473,-6.9535,-6.9574,-6.9586,-6.9626,-6.9684,-6.9727,-6.9791,-6.9843,-6.9947,-6.9973,-7.0032,-7.0026,-7.0089,-7.0034,-7.003,-7.0023,-7.0017,-7.0022,-7.0097,-7.0099,-7.01,-7.0101,0,-6.9433,-6.9441,-6.9497,-6.9558,-6.9605,-6.9653,-6.9698,-6.973,-6.9748,-6.9794,-6.9861,-6.9901,-6.9981,-7.0044,-7.0103,-7.0129,-7.0117,-7.0119,-7.0135,-7.0131,-7.0121,-7.0124,-6.9944,-7.0113,-7.0112,-7.0111,-7.011,-7.011,-6.953,-6.958,-6.9627,-6.969,-6.9726,-6.977,-6.9819,-6.9844,-6.99,-6.9966,-6.9971,-7.0043,-7.0087,-7.0166,-7.0196,-7.0251,-7.0232,-7.0256,-7.0261,-7.0265,-7.0269,-7.0116,-7.0263,-7.0262,-7.0262,-7.0262,-7.0262,0,-6.9665,-6.9695,-6.9753,-6.9818,-6.9868,-6.9856,-6.9907,-6.9948,-7.0012,-7.0055,-7.0107,-7.0183,-7.0245,-7.0277,-7.0337,-7.0376,-7.0372,-7.0391,-7.0386,-7.0392,-7.0284,-7.0263,-7.0393,-7.0393,-7.0393,-7.0393,-7.0393,-7.0393,-6.9741,-6.9825,-6.9839,-6.9941,-6.997,-7.0041,-7.007,-7.011,-7.0144,-7.023,-7.0282,-7.0303,-7.0341,-7.0405,-7.0461,-7.0468,-7.049,-7.051,-7.0515,-7.0413,-7.0399,-7.0387,-7.0366,-7.0516,-7.0516,-7.0618,-7.0619,-7.0619]},{"header":{"parameterUnit":"m.s-1","parameterCategory":1,"la1":30.2991,"la2":30.254,"lo1":-89.0895,"lo2":-89.0444,"dy":0.0017,"dx":0.0017,"nx":28,"ny":28,"refTime":"2024-04-08T09:00:00:Z","depth":0,"parameterNumber":3,"parameterNumberName":"V-component_of_WINDS"},"data":[0,0,0,0,0,0,0,0,0,0,0,0,0,0,0,0,0,0,0,0,0,0,0,0,0,0,0,0,0,0,0,0,0,0,0,0,0,0,0,0,0,0,0,0,0,0,0,0,0,0,0,0,0,0,0,0,0,0,4.4124,4.4123,0,4.4088,4.4088,4.4087,4.404,4.4039,4.4039,4.4038,4.3997,4.3997,4.3996,0,0,0,0,0,0,0,0,0,0,0,0,0,4.4149,4.4149,4.4124,4.4123,4.4123,4.4088,4.4088,4.4087,4.404,4.4039,4.4039,4.4038,4.3997,4.3997,4.3996,0,0,0,0,0,0,0,0,0,0,0,0,0,4.4128,4.4149,4.4124,4.4095,4.4093,4.4088,4.4088,4.4087,4.4041,4.4039,4.4038,4.4037,4.3997,4.3997,4.3996,4.4016,0,0,4.3995,4.3994,0,0,0,0,0,0,0,0,4.413,4.4127,4.41,4.4097,4.4094,4.4068,4.4082,4.4063,4.4041,4.406,4.4038,4.4037,4.4021,4.4019,4.4014,4.4014,4.4012,4.3995,4.3994,4.3994,4.3994,0,0,0,0,0,0,0,4.4131,4.4129,4.4109,4.41,4.4096,4.4084,4.408,4.4078,4.4047,4.4058,4.4055,4.4052,4.4019,4.4015,4.4013,4.4011,4.3995,4.3994,4.3994,4.3993,4.4027,4.4028,0,0,0,0,0,0,4.4137,4.413,4.4111,4.4108,4.411,4.4084,4.408,4.4077,4.4047,4.4042,4.4053,4.405,4.4016,4.4014,4.4011,4.4033,4.3994,4.3993,4.3993,4.4026,4.4027,4.4029,0,0,0,0,0,0,4.4138,4.4136,4.4112,4.4118,4.4114,4.4085,4.4083,4.4077,4.4073,4.4043,4.4037,4.4054,4.4015,4.4012,4.4016,4.4031,4.3993,4.3993,4.4024,4.4026,4.4028,4.4077,0,0,0,0,0,0,4.4139,4.4136,4.4144,4.4119,4.4114,4.4118,4.4084,4.4077,4.4072,4.4068,4.4043,4.4037,4.4014,4.4017,4.4015,4.403,4.3992,4.4023,4.4025,4.4028,4.4074,4.408,4.4086,0,0,0,0,0,4.414,4.4157,4.4144,4.4142,4.4123,4.4119,4.4116,4.409,4.4074,4.4081,4.4062,4.4038,4.403,4.4018,4.4015,4.403,4.4022,4.4025,4.4027,4.4071,4.4079,4.4086,0,0,0,0,0,0,4.4182,4.4154,4.4139,4.4149,4.4137,4.4111,4.4119,4.4099,4.409,4.4087,4.4054,4.4049,4.4057,4.4044,4.403,4.4048,4.4023,4.4025,4.4057,4.4064,4.407,4.4072,4.3992,0,0,0,0,0,4.4194,4.4194,4.4168,4.4179,4.4174,4.4148,4.4145,4.4127,4.4112,4.4106,4.4088,4.4074,4.4069,4.4065,4.4059,4.4072,4.4066,4.4081,4.4087,4.4092,4.4095,4.4103,4.4109,4.4038,4.4038,4.4038,0,0,4.4215,4.42,4.4201,4.4187,4.4176,4.4176,4.4144,4.4144,4.4144,4.4106,4.4109,4.4096,4.4078,4.4087,4.409,4.4076,4.4114,4.4096,4.41,4.41,4.4106,4.4113,4.4119,4.404,4.404,4.4039,0,0,4.4255,4.4243,4.4253,4.4243,4.4227,4.421,4.4212,4.419,4.418,4.4183,4.4155,4.4154,4.4145,4.4134,4.4127,4.4167,4.4145,4.4166,4.4197,4.4205,4.4211,4.4216,4.4231,4.4237,4.4168,4.4169,4.4169,0,4.4284,4.4284,4.4259,4.4263,4.4258,4.4226,4.4236,4.4227,4.4209,4.4206,4.4191,4.4182,4.4167,4.4174,4.4185,4.418,4.4182,4.4168,4.4212,4.4217,4.4221,4.4235,4.4241,4.4171,4.4171,4.4171,4.417,0,4.4321,4.4322,4.4331,4.4317,4.4314,4.432,4.4296,4.4295,4.4278,4.4263,4.4267,4.425,4.424,4.424,4.4222,4.4246,4.4238,4.4218,4.4192,4.4231,4.4244,4.4249,4.4175,4.4174,4.4173,4.4173,0,0,4.4385,4.436,4.4363,4.4358,4.4339,4.4339,4.4345,4.4337,4.4338,4.4327,4.4331,4.4326,4.4309,4.4301,4.4282,4.429,4.4325,4.4269,4.4268,4.4281,4.4351,4.4366,4.4373,4.431,4.4311,4.4312,4.4353,0,4.4422,4.4431,4.441,4.4424,4.4425,4.4396,4.4401,4.4391,4.4377,4.4376,4.436,4.4357,4.4334,4.433,4.4336,4.4319,4.4338,4.4316,4.4314,4.4314,4.4319,4.4379,4.4395,4.4434,4.4357,4.4358,4.4359,0,4.4466,4.446,4.4475,4.4458,4.4458,4.4463,4.4456,4.4455,4.4442,4.4432,4.4426,4.4405,4.4409,4.4385,4.4391,4.4376,4.4374,4.4366,4.4367,4.4366,4.4339,4.438,4.4445,4.4452,4.4366,4.4366,4.4365,0,4.4512,4.4508,4.4517,4.4513,4.4493,4.4498,4.449,4.4476,4.4474,4.4467,4.4466,4.4459,4.4455,4.4451,4.4429,4.4413,4.4438,4.4411,4.443,4.4431,4.4436,4.4436,4.4503,4.4435,4.4434,4.4434,4.4434,0,4.4556,4.4566,4.4538,4.4544,4.4555,4.4531,4.4543,4.4532,4.4521,4.4524,4.4498,4.4501,4.4472,4.4472,4.4454,4.4463,4.4461,4.4453,4.4448,4.4456,4.4457,4.4454,4.445,4.4436,4.4436,4.4435,4.4435,0,4.4609,4.4591,4.4599,4.4581,4.4577,4.4586,4.457,4.4574,4.456,4.4565,4.4564,4.4541,4.454,4.4519,4.4512,4.4501,4.4517,4.4506,4.4521,4.4518,4.4539,4.4537,4.4606,4.4614,4.454,4.4541,4.4542,0,4.4638,4.4646,4.463,4.4631,4.4625,4.4626,4.4624,4.4601,4.4601,4.4589,4.4595,4.4592,4.4589,4.4589,4.4572,4.4567,4.4557,4.4582,4.4556,4.4564,4.4559,4.4559,4.456,4.4587,4.4588,4.4588,4.4589,0,4.4693,4.4684,4.4683,4.468,4.4679,4.4675,4.4669,4.4671,4.4646,4.4647,4.4647,4.4644,4.464,4.4638,4.4631,4.4621,4.4602,4.4598,4.4602,4.4609,4.4618,4.4615,4.4536,4.4596,4.4595,4.4595,4.4594,4.4594,4.4735,4.4742,4.4732,4.4732,4.4726,4.4722,4.4726,4.4714,4.4714,4.4709,4.4696,4.4698,4.4687,4.4676,4.467,4.4671,4.4659,4.4664,4.4666,4.4668,4.4673,4.4618,4.467,4.4669,4.4669,4.4669,4.4669,0,4.4789,4.4782,4.4783,4.4777,4.4778,4.4761,4.4754,4.4755,4.4759,4.4751,4.4749,4.475,4.4749,4.4733,4.473,4.4734,4.4725,4.4734,4.4733,4.4732,4.4683,4.468,4.4742,4.4742,4.4742,4.4742,4.4742,4.4742,4.4817,4.4828,4.4818,4.4826,4.4819,4.4822,4.482,4.4817,4.4811,4.4813,4.4813,4.4803,4.4792,4.4789,4.4787,4.4782,4.4783,4.4795,4.4788,4.4742,4.4735,4.4728,4.4726,4.4795,4.4796,4.4836,4.4837,4.4837]}]]